Location: Unspecified
(33.6682°S, 0.0000°E)
Time: 04:38:16
(UTC+00:00)

Tiros 1 despin weight - Pass Details

Date: 18 June 2019
Orbit: 594 x 642 km, 48.2° (Epoch: 21 July)

Event Time Altitude Azimuth Distance (km) Brightness Sun altitude
Rises 12:24:02 0° 295° (WNW) 2,923 ? 32.7°
Reaches altitude 10° 12:26:23 10° 290° (WNW) 2,027 ? 32.6°
Maximum altitude 12:30:57 51° 214° (SSW) 814 ? 32.5°
Drops below altitude 10° 12:35:35 10° 137° (SE) 2,057 ? 32.3°
Sets 12:38:00 0° 131° (SE) 2,972 ? 32.3°
